Regional Weather Roundup
Issued by NWS

Home | Current Version | Previous Version | Graphics & Text | Print | Product List | Glossary On
Versions: 1 2 3 4 5 6 7 8 9 10 11 12 13 14 15 16 17 18 19 20 21 22 23 24 25 26 27 28 29 30 31 32 33 34 35 36 37 38 39 40 41 42 43 44 45 46 47 48 49 50
283
ASUS43 KLSX 100757
RWRMO

WEATHER SUMMARY FOR MISSOURI
NATIONAL WEATHER SERVICE SPRINGFIELD MO
200 AM CST SAT DEC 10 2016

NOTE: "FAIR" INDICATES FEW OR NO CLOUDS BELOW 12,000 FEET WITH NO
       SIGNIFICANT WEATHER AND/OR OBSTRUCTIONS TO VISIBILITY.
       CURRENT SKY AND/OR WEATHER CONDITIONS ARE NOT AVAILABLE FOR
       CHILLICOTHE AND FARMINGTON.

MOZ001>031-035>038-043-044-053-054-100900-
...NORTHERN AND WESTERN MISSOURI...

CITY           SKY/WX    TMP DP  RH WIND       PRES   REMARKS
KANSAS CTY INT CLOUDY    27  11  51 S6        30.49S WCI  20
LEE`S SUMMIT   CLOUDY    26  13  57 SE5       30.50S WCI  20
ST JOSEPH      CLOUDY    26  14  60 SE5       30.50F WCI  20
CHILLICOTHE      N/A     25  11  55 SE3       30.53F

$$
MOZ066>068-077>081-088>096-101>105-100900-
...SOUTHWEST MISSOURI...

CITY           SKY/WX    TMP DP  RH WIND       PRES   REMARKS
SPRINGFIELD    CLOUDY    28  14  55 S8        30.47S WCI  20
JOPLIN         CLOUDY    31  17  56 SE6       30.49S WCI  25

$$
MOZ032>034-039>042-045>050-055>058-069>072-100900-
...CENTRAL MISSOURI...

CITY           SKY/WX    TMP DP  RH WIND       PRES   REMARKS
COLUMBIA       NOT AVBL
JEFFERSON CITY CLOUDY    25  13  60 E5        30.56R WCI  19
ROLLA          CLOUDY    23  12  62 SE8       30.51S WCI  14
SEDALIA        CLOUDY    26  12  55 SE7       30.53S WCI  18
WARRENSBURG    CLOUDY    27  12  54 SE5       30.51S WCI  21

$$
MOZ051-052-059>065-100900-
...EAST CENTRAL MISSOURI...

CITY           SKY/WX    TMP DP  RH WIND       PRES   REMARKS
ST LOUIS INTL  NOT AVBL

$$
MOZ072>076-082>087-097>100-106>115-100900-
...SOUTH CENTRAL AND SOUTHEAST MISSOURI...

CITY           SKY/WX    TMP DP  RH WIND       PRES   REMARKS
CAPE GIRARDEAU CLEAR     20  17  88 SE3       30.59S
POPLAR BLUFF   CLEAR     20  18  92 CALM      30.59R
WEST PLAINS    CLEAR     21  13  71 CALM      30.52R

$$



USA.gov is the U.S. government's official web portal to all federal, state and local government web resources and services.